Regional Weather Roundup
Issued by NWS Newport/Morehead, NC

Current Version | Previous Version | Graphics & Text | Print | Product List | Glossary Off
Versions: 1 2 3 4 5 6 7 8 9 10 11 12 13 14 15 16 17 18 19 20 21 22 23 24 25 26 27 28 29 30 31 32 33 34 35 36 37 38 39 40 41 42 43 44 45 46 47 48 49 50

000
ASUS42 KMHX 241525
RWRMHX
WEATHER ROUNDUP FOR EASTERN NORTH CAROLINA
NATIONAL WEATHER SERVICE NEWPORT/MOREHEAD CITY NC
1100 AM EDT SUN JUL 24 2016

NOTE: "FAIR" INDICATES FEW OR NO CLOUDS BELOW 12,000 FEET
WITH NO SIGNIFICANT WEATHER AND/OR OBSTRUCTIONS TO VISIBILITY

NCZ015>017-031-032-045>047-102-103-241600-
NORTH COAST

CITY           SKY/WX    TMP DP  RH WIND       PRES   REMARKS
EDENTON        SUNNY     87  75  68 SW6       30.03R
ELIZABETH CITY SUNNY     89  77  67 SW9       30.01R HX 101
KITTY HAWK     SUNNY     90  76  62 W7        30.01R HX 102
MANTEO           N/A     87  78  76 W6        30.02S HX 100

$$

NCZ045>047-081-094-103-104-241600-
CENTRAL COAST

CITY           SKY/WX    TMP DP  RH WIND       PRES   REMARKS
FRISCO         MOSUNNY   84  78  82 SW8       30.04R

$$

NCZ095-097-098-100-101-241600-
SOUTHERN COAST

CITY           SKY/WX    TMP DP  RH WIND       PRES   REMARKS
BEAUFORT       PTSUNNY   86  78  77 SW10      30.04S
CEDAR ISLAND   NOT AVBL
JACKSONVILLE   MOSUNNY   88  76  67 VRB3      30.03S
PINEY ISLAND   NOT AVBL
WILMINGTON     MOSUNNY   88  76  67 W7        30.04R


$$

NCZ011>013-027>030-043-044-078>080-089-090>093-098-241600-
COASTAL PLAIN

CITY           SKY/WX    TMP DP  RH WIND       PRES   REMARKS
AHOSKIE        SUNNY     86  77  74 CALM      30.01S
CLINTON        SUNNY     87  78  72 CALM      30.04S HX 100
ELIZABETHTOWN  SUNNY     87  77  73 SE3       30.04S
GOLDSBORO      SUNNY     89  77  67 SW6       30.02R HX 101
GREENVILLE     SUNNY     88  77  70 CALM      30.04S HX 100
HAVELOCK       MOSUNNY   89  76  65 SW7       30.05R HX 100
KENANSVILLE    NOT AVBL
KINSTON        SUNNY     88  75  66 SW3       30.04R
NEW BERN       SUNNY     88  77  69 S9        30.04S HX 100
RICHLANDS      MOSUNNY   88  78  72 CALM      30.05R HX 101
ROCKY MOUNT    SUNNY     88  77  69 S3        30.03S HX 100
WASHINGTON     SUNNY     87  77  73 SW3       30.03S
WHITEVILLE     MOSUNNY   86  76  72 CALM      30.04S

$$

AMZ130-135-150-152-154-156-158-170-250-252-270-ANZ085-086-088-633-658-670-241600-
MARINE OBSERVATIONS

STATION/POSITION TIME  TEMP    WIND        PRES    WAVE   SWELL
                       AIR SEA DIR/SP/G            HT/PER HT/PER
                 (UTC) (F)     (DEG/KT/KT) (MB)    (FT/S) (FT/S)
CHESAPEAKE LIGHT NOT AVBL
64 E VA BEACH    1450   81 81  250/ 12/ 14 1015.4    3/ 4   2/ 8
DUCK             1500   84 60  250/  8/ 11 1015.7
2 E DUCK         1411      67                N/A     1/ 8
OREGON INLET     1500   84 84  230/  5/  6 1016.5
13E OREGON INLT  1500      82                N/A     2/ 9   2/ 9
HATTERAS CG      1500   85 82  210/  8/ 12 1017.0
DIAMOND BUOY     1450   84 86  240/ 10/ 12 1017.2    3/ 9   2/ 9
CAPE LOOKOUT     1500   86     230/  8/ 11 1017.1
BEAUFORT LAB     1500   86 82  230/  5/ 10 1016.8
30 SE NEW RVR IN 1508   85 85  220/  8/ 12 1017.6
30 SE NEW RVR IN 1425      85                N/A     2/ 8
27 SE WRIGHTSVLE 1508   85 85  220/ 10/ 12 1017.8
5 SE WRIGHTSVLE  1508   84 84  210/ 10/ 12 1018.2
225 S CAPE HAT   1450   83 85  110/  2/  4 1018.7    2/ 8   2/ 8
41 SE CHARLESTON 1450   85 86  220/ 12/ 12 1017.0    3/ 8   2/ 8

$$




USA.gov is the U.S. government's official web portal to all federal, state and local government web resources and services.